McCutcheon Field, NC

8:39 AM EST on February 28, 2017 (GMT -0500)
New River Marine Corps Air Station

Weather History for KNCA - October, 2012

Change the Weather History Date:

Thursday, October 25, 2012

  Actual Average Record
Temperature  
Mean Temperature 68 °F -  
Max Temperature 82 °F 70 °F 84 °F (2001)
Min Temperature 55 °F 48 °F 35 °F (2006)
Cooling Degree Days 4    
Growing Degree Days 18 (Base 50)    
Moisture  
Dew Point 57 °F    
Average Humidity 86    
Maximum Humidity 94    
Minimum Humidity 45    
Precipitation  
Precipitation 0.00 in - - ()
Sea Level Pressure  
Sea Level Pressure 30.14 in    
Wind  
Wind Speed 1 mph (East)    
Max Wind Speed 8 mph    
Max Gust Speed -    
Visibility 4 miles    
Events Fog    
Averages and records for this station are not official NWS values.
T = Trace of Precipitation, MM = Missing Value Source: NWS Daily Summary

Daily Weather History Graph

Daily Weather History Graph

Search for Another Location

Airport or City:

Trip Planner

Search our weather history database for the weather conditions in past years. The results will help you decide how hot, cold, wet, or windy it might be!

Date:

Astronomy

Oct. 25, 2012 Rise Set
Actual Time 7:24 AM EDT 6:22 PM EDT
Civil Twilight 6:58 AM EDT 6:48 PM EDT
Nautical Twilight 6:29 AM EDT 7:17 PM EDT
Astronomical Twilight 5:59 AM EDT 7:47 PM EDT
Moon 4:00 PM EDT (10/25) 3:27 AM EDT (10/25)
Length of Visible Light 11h 49m
Length of Day
10h 58m
Waxing Gibbous, 84% of the Moon is Illuminated
Oct 25
Waxing Gibbous
Oct 29
Full
Nov 6
Last Quarter
Nov 13
New
Nov 20
First Quarter

Hourly Weather History & Observations

Time (EDT) Temp. Heat Index Dew Point Humidity Pressure Visibility Wind Dir Wind Speed Gust Speed Precip Events Conditions
12:56 AM 59.0 °F - 55.9 °F 90% 30.15 in 3.0 mi Calm Calm - N/A   Clear
1:28 AM 60.8 °F - 57.2 °F 88% 30.14 in 1.8 mi Calm Calm - N/A   Clear
1:37 AM 60.8 °F - 57.2 °F 88% 30.15 in 3.0 mi Calm Calm - N/A   Clear
1:56 AM 60.1 °F - 57.0 °F 90% 30.15 in 1.2 mi Calm Calm - N/A   Partly Cloudy
1:59 AM 57.2 °F - 55.4 °F 94% 30.14 in 0.8 mi Calm Calm - N/A   Mist
2:10 AM 57.2 °F - 55.4 °F 94% 30.14 in 0.8 mi Calm Calm - N/A   Clear
2:19 AM 59.0 °F - 55.4 °F 88% 30.13 in 1.2 mi Calm Calm - N/A   Clear
2:34 AM 57.2 °F - 55.4 °F 94% 30.13 in 4.0 mi Calm Calm - N/A   Clear
2:56 AM 57.9 °F - 55.9 °F 93% 30.13 in 3.0 mi Calm Calm - N/A   Clear
3:07 AM 55.4 °F - 53.6 °F 94% 30.12 in 3.0 mi Calm Calm - N/A   Scattered Clouds
3:10 AM 57.2 °F - 53.6 °F 88% 30.12 in 2.5 mi Calm Calm - N/A   Mostly Cloudy
3:14 AM 57.2 °F - 53.6 °F 88% 30.12 in 1.0 mi Calm Calm - N/A   Mist
3:18 AM 55.4 °F - 53.6 °F 94% 30.12 in 0.5 mi Calm Calm - N/A Fog Fog
3:25 AM 57.2 °F - 55.4 °F 94% 30.12 in 1.0 mi Calm Calm - N/A   Mist
3:27 AM 57.2 °F - 55.4 °F 94% 30.12 in 2.0 mi Calm Calm - N/A   Mostly Cloudy
3:44 AM 57.2 °F - 55.4 °F 94% 30.12 in 0.8 mi Calm Calm - N/A   Mist
3:56 AM 55.9 °F - 54.0 °F 93% 30.12 in 0.5 mi Calm Calm - N/A Fog Fog
4:03 AM 57.2 °F - 53.6 °F 88% 30.12 in 2.0 mi Calm Calm - N/A   Clear
4:11 AM 57.2 °F - 55.4 °F 94% 30.12 in 5.0 mi Calm Calm - N/A   Clear
4:29 AM 55.4 °F - 53.6 °F 94% 30.12 in 2.5 mi Calm Calm - N/A   Partly Cloudy
4:44 AM 57.2 °F - 53.6 °F 88% 30.12 in 9.0 mi Calm Calm - N/A   Mostly Cloudy
4:56 AM 57.9 °F - 55.0 °F 90% 30.14 in 10.0 mi Calm Calm - N/A   Mostly Cloudy
5:08 AM 59.0 °F - 55.4 °F 88% 30.13 in 0.5 mi Calm Calm - N/A Fog Fog
5:19 AM 57.2 °F - 55.4 °F 94% 30.13 in 1.0 mi Calm Calm - N/A   Overcast
5:27 AM 57.2 °F - 55.4 °F 94% 30.13 in 0.5 mi Calm Calm - N/A Fog Fog
5:35 AM 57.2 °F - 53.6 °F 88% 30.13 in 0.2 mi Calm Calm - N/A Fog Fog
5:56 AM 57.0 °F - 54.0 °F 89% 30.15 in 0.5 mi Calm Calm - N/A Fog Fog
6:13 AM 55.4 °F - 53.6 °F 94% 30.13 in 2.0 mi Calm Calm - N/A   Overcast
6:20 AM 57.2 °F - 53.6 °F 88% 30.14 in 3.0 mi Calm Calm - N/A   Overcast
6:26 AM 57.2 °F - 53.6 °F 88% 30.14 in 1.5 mi Calm Calm - N/A   Overcast
6:28 AM 57.2 °F - 55.4 °F 94% 30.14 in 0.8 mi Calm Calm - N/A   Mist
6:36 AM 57.2 °F - 55.4 °F 94% 30.14 in 0.5 mi Calm Calm - N/A Fog Fog
6:43 AM 57.2 °F - 55.4 °F 94% 30.14 in 0.2 mi Calm Calm - N/A Fog Fog
7:02 AM 57.2 °F - 55.4 °F 94% 30.13 in 1.0 mi Calm Calm - N/A   Mist
7:11 AM 57.2 °F - 55.4 °F 94% 30.14 in 0.5 mi Calm Calm - N/A Fog Fog
7:16 AM 57.2 °F - 55.4 °F 94% 30.14 in 0.2 mi Calm Calm - N/A Fog Fog
7:27 AM 57.2 °F - 55.4 °F 94% 30.14 in 0.8 mi Calm Calm - N/A   Mist
7:29 AM 57.2 °F - 55.4 °F 94% 30.14 in 1.2 mi Calm Calm - N/A   Overcast
7:40 AM 57.2 °F - 55.4 °F 94% 30.14 in 0.8 mi Calm Calm - N/A   Mist
7:48 AM 59.0 °F - 57.2 °F 94% 30.14 in 0.5 mi Calm Calm - N/A Fog Fog
7:52 AM 59.0 °F - 57.2 °F 94% 30.14 in 1.2 mi Calm Calm - N/A   Overcast
7:56 AM 57.9 °F - 55.9 °F 93% 30.15 in 4.0 mi Calm Calm - N/A   Mostly Cloudy
8:11 AM 60.8 °F - 57.2 °F 88% 30.15 in 1.0 mi Calm Calm - N/A   Mist
8:19 AM 60.8 °F - 57.2 °F 88% 30.16 in 0.5 mi Calm Calm - N/A Fog Fog
8:28 AM 60.8 °F - 57.2 °F 88% 30.16 in 0.5 mi Calm Calm - N/A Fog Fog
8:36 AM 60.8 °F - 57.2 °F 88% 30.16 in 1.0 mi Calm Calm - N/A   Overcast
8:45 AM 60.8 °F - 57.2 °F 88% 30.16 in 0.5 mi Calm Calm - N/A Fog Fog
8:56 AM 61.0 °F - 59.0 °F 93% 30.17 in 0.5 mi Calm Calm - N/A Fog Fog
9:01 AM 62.6 °F - 59.0 °F 88% 30.17 in 1.2 mi Calm Calm - N/A   Overcast
9:14 AM 62.6 °F - 60.8 °F 94% 30.17 in 3.0 mi NE 3.5 mph - N/A   Overcast
9:39 AM 66.2 °F - 62.6 °F 88% 30.17 in 10.0 mi NE 3.5 mph - N/A   Partly Cloudy
9:56 AM 66.9 °F - 62.1 °F 84% 30.18 in 10.0 mi Calm Calm - N/A   Clear
10:56 AM 75.0 °F - 64.0 °F 69% 30.18 in 10.0 mi NNE 3.5 mph - N/A   Clear
11:56 AM 78.1 °F - 64.0 °F 62% 30.17 in 10.0 mi East 4.6 mph - N/A   Clear
12:56 PM 80.1 °F 81.1 °F 61.0 °F 52% 30.15 in 10.0 mi East 4.6 mph - N/A   Scattered Clouds
1:56 PM 82.0 °F 82.4 °F 60.1 °F 47% 30.13 in 10.0 mi Calm Calm - N/A   Partly Cloudy
2:56 PM 80.1 °F 80.9 °F 60.1 °F 50% 30.11 in 10.0 mi ESE 5.8 mph - N/A   Clear
3:56 PM 81.0 °F 81.1 °F 57.9 °F 45% 30.11 in 10.0 mi ESE 6.9 mph - N/A   Clear
5:56 PM 75.0 °F - 61.0 °F 62% 30.12 in 10.0 mi SE 5.8 mph - N/A   Clear
6:56 PM 70.0 °F - 61.0 °F 73% 30.12 in 10.0 mi SSE 3.5 mph - N/A   Clear
7:56 PM 70.0 °F - 62.1 °F 76% 30.13 in 10.0 mi East 4.6 mph - N/A   Clear
8:56 PM 70.0 °F - 62.1 °F 76% 30.12 in 10.0 mi East 5.8 mph - N/A   Clear
9:56 PM 69.1 °F - 62.1 °F 78% 30.12 in 10.0 mi East 8.1 mph - N/A   Clear
10:56 PM 68.0 °F - 59.0 °F 73% 30.10 in 10.0 mi Calm Calm - N/A   Clear
11:56 PM 66.9 °F - 57.9 °F 73% 30.10 in 10.0 mi NE 3.5 mph - N/A   Clear